Погода в Арзамасцеве

Россия / Удмуртская Республика     56°08′49″N   53°42′00″E
темп.,
°C
ветер,
м/с
пор.,
м/с
влажн.,
%
обл.,
%
осадки,
мм/ч
давл.,
гПа
погр.,
м
15 апреля, чт
чт1501:00+9ю337674 0.0 102532
04:00+8ю338571 0.0 102525
07:00+9ю358213 0.0 1024118
10:00+14ююз46575 0.0 1023369
13:00+18ююз57490 0.0 1021834
16:00+19юз46435 0.0 10201392
19:00+16юз22565 0.0 101912
22:00+13зсз11655 0.0 102010
16 апреля, пт
пт1601:00+9ссв48875 0.0 1020170
04:00+6св6128732 0.0 1022385
07:00+5св71284100 0.0 1024482
10:00+7св6967100 0.0 1025553
13:00+10св675949 0.0 1025774
16:00+11всв676133 0.0 10251052
19:00+9всв36706 0.0 1025151
22:00+5ссв48760 0.0 1027167
17 апреля, сб
сб1701:00+3ссв410700 0.0 1027227
04:00+1ссв410730 0.0 1028202
07:00+2св410691 0.0 1028288
10:00+7св57425 0.0 1028776
13:00+10св55385 0.0 10271304
16:00+11ссв44375 0.0 10261471
19:00+8с35534 0.0 1026116
22:00+6с22604 0.0 102610
18 апреля, вс
вс1801:00+4ссз22695 0.0 102517
04:00+2ссз22765 0.0 102519
07:00+4сз26730 0.0 1024174
10:00+8ссз46555 0.0 1024941
13:00+9ссв8754100 0.0 10251613
16:00+7ссв68439 0.0 10261638
19:00+4св710420 0.0 1028715
22:00+2св613480 0.0 1030502
19 апреля, пн
пн1901:000всв511625 0.0 1031420
04:00−1всв511640 0.0 1033426
07:000в610540 0.0 1035735
10:00+3в79320 0.0 10351396
13:00+5в68280 0.0 10341591
16:00+6в56285 0.0 10331652
19:00+4всв47400 0.0 1033187
22:000всв38514 0.0 1034139